Location: Góry Miechowskie
(50.3599°N, 20.1803°E)
Time: 20:48:21
(UTC+00:00)

Cosmos 2219 - Pass Details

Date: 20 September 2024
Orbit: 831 x 860 km, 71.1° (Epoch: 13 October)

Event Time Altitude Azimuth Distance (km) Brightness Sun altitude
Rises 01:59:20 0° 145° (SE) 3,395 6.4 -22.5°
Reaches altitude 10° 02:03:32 10° 114° (ESE) 2,475 6.1 -21.9°
Maximum altitude 02:05:27 12° 94° (E) 2,355 6.2 -21.7°
Drops below altitude 10° 02:07:23 10° 74° (ENE) 2,488 6.7 -21.4°
Sets 02:11:37 0° 45° (NE) 3,437 7.7 -20.8°
